Location: Drocourt
(49.0571°N, 1.7669°E)
Time: 02:16:16
(UTC+00:00)

Transit 4A - Pass Details

Date: 18 April 2024
Orbit: 871 x 971 km, 66.8° (Epoch: 19 May)

Event Time Altitude Azimuth Distance (km) Brightness Sun altitude
Rises 21:58:52 0° 321° (NW) 3,471 12.3 -24.7°
Reaches altitude 10° 22:01:23 10° 318° (NW) 2,528 11.2 -25.0°
Maximum altitude 22:07:03 55° 242° (WSW) 1,050 8.1 -25.4°
Enters shadow 22:07:54 50° 211° (SSW) 1,106 8.0 -25.5°
Drops below altitude 10° 22:12:44 10° 166° (SSE) 2,538 - -25.8°
Sets 22:15:16 0° 162° (SSE) 3,484 - -26.0°
